Find Starlink 35155

NORAD ID: 65935 Int'l Des: 2025-225 Owner: SPXS Country: US Constellation: starlink operational
LEOCIRCULAR

Live Position

Loading 3D Globe...

About Starlink 35155

Description loading...

Upcoming Passes

Passes for default location (London). Set your location on the main map for personalized predictions.

Altitude History

Loading altitude history...

Two-Line Element Set

1 65935U 25225AB 26106.94914122 .00017819 00000-0 61206-3 0 9995
2 65935 53.1600 348.1183 0001504 90.6953 269.4220 15.30212495 29373
Epoch: Apr 16, 2026 • Age: 18 hours

Current Status

Altitude 479.8 km
Velocity 7.63 km/s
Sub-Earth Point 49.07°N, 46.79°W
Launch Date Oct 8, 2025
Age 0.5 years
Type internet

Technical Details

Classification Payload
Mass 575.00 kg
Dry Mass 530.00 kg
Total Mass 575.00 kg
Length 0.30 m
Diameter 4.10 m
Span 29.00 m
Shape Box + pan
Manufacturer SPXS
Bus Type Starlink V2MO
Phase Status In Orbit
Owner/State SPXS/US

Most Searched